DW3753 Weather Reports


Display with metric or nautical units.
time (UTC)temp
F
wind
direction
speed
MPH
gust
MPH
rain 1hr
in
rain 24hr
in
rain mn
in
humidity
%
barometer
mb
20260502163417 68 329 3.0 8.0 0.00 0.00 0.00 54 1020.8
20260502162420 67 261 3.0 7.0 0.00 0.00 0.00 55 1020.8
20260502161417 67 332 3.0 8.0 0.00 0.00 0.00 55 1020.7
20260502160851 67 311 4.0 8.0 0.00 0.00 0.00 55 1020.6
20260502151410 63 287 5.0 9.0 0.00 0.00 0.00 72 1020.4
20260502150901 62 318 5.0 9.0 0.00 0.00 0.00 74 1020.4
20260502130406 53 344 4.0 6.0 0.00 0.00 0.00 89 1019.6
20260502123358 52 323 4.0 6.0 0.00 0.00 0.00 90 1019.3
20260502122358 51 343 5.0 8.0 0.00 0.00 0.00 90 1019.0
20260502121359 51 317 5.0 9.0 0.00 0.00 0.00 89 1018.8
20260502120400 51 342 6.0 9.0 0.00 0.00 0.00 89 1018.7
20260502115401 51 333 5.0 8.0 0.00 0.00 0.00 89 1018.5
20260502114358 51 350 5.0 8.0 0.00 0.00 0.00 89 1018.4
20260502113359 51 331 6.0 9.0 0.00 0.00 0.00 89 1018.2
20260502112835 51 341 7.0 10.0 0.00 0.00 0.00 89 1018.1
20260502111354 51 350 6.0 10.0 0.00 0.00 0.00 88 1017.9
20260502110354 51 345 6.0 10.0 0.00 0.00 0.00 88 1017.7
20260502105354 52 344 7.0 10.0 0.00 0.00 0.00 88 1017.5
20260502104352 52 334 6.0 11.0 0.00 0.00 0.00 88 1017.5
20260502103840 52 342 5.0 9.0 0.00 0.00 0.00 88 1017.5
20260502102353 52 346 5.0 8.0 0.00 0.00 0.00 88 1017.5
20260502101354 52 325 4.0 6.0 0.00 0.00 0.00 87 1017.5
20260502100355 52 344 5.0 8.0 0.00 0.00 0.00 87 1017.7
20260502091346 53 335 5.0 8.0 0.00 0.00 0.00 86 1017.2
20260502090834 53 336 4.0 6.0 0.00 0.00 0.00 86 1017.1
20260502071340 55 184 0.0 2.0 0.00 0.00 0.00 81 1017.3
20260502070341 55 184 1.0 2.0 0.00 0.00 0.00 80 1017.5
20260502065335 55 184 1.0 2.0 0.00 0.00 0.00 79 1017.5
20260502064336 55 184 0.0 0.0 0.00 0.00 0.00 78 1017.5
20260502063334 55 184 1.0 2.0 0.00 0.00 0.00 79 1017.5
20260502062335 55 184 1.0 2.0 0.00 0.00 0.00 77 1017.4
20260502061334 55 184 1.0 3.0 0.00 0.00 0.00 76 1017.4
20260502060829 56 184 1.0 2.0 0.00 0.00 0.00 76 1017.3
20260502055334 56 177 2.0 4.0 0.00 0.00 0.00 76 1017.4
20260502054334 56 203 3.0 5.0 0.00 0.00 0.00 77 1017.4
20260502053338 57 181 2.0 4.0 0.00 0.00 0.00 77 1017.5
20260502052329 57 181 2.0 3.0 0.00 0.00 0.00 77 1017.6
20260502051328 57 181 1.0 3.0 0.00 0.00 0.00 78 1017.5
20260502050836 57 181 1.0 3.0 0.00 0.00 0.00 78 1017.4
20260502050725 57 181 1.0 2.0 0.00 0.00 0.00 77 1017.5
20260502044810 57 181 2.0 3.0 0.00 0.00 0.00 77 1017.4
20260502043328 58 181 2.0 3.0 0.00 0.00 0.00 77 1017.5
20260502042326 58 181 2.0 4.0 0.00 0.00 0.00 76 1017.4
20260502041327 58 181 2.0 4.0 0.00 0.00 0.00 76 1017.4
20260502040327 58 153 0.0 2.0 0.00 0.00 0.00 75 1017.3
20260502035322 58 153 1.0 2.0 0.00 0.00 0.00 73 1017.2
20260502034320 58 153 1.0 3.0 0.00 0.00 0.00 72 1017.2
20260502033320 59 153 1.0 3.0 0.00 0.00 0.00 70 1017.1
20260502032325 59 153 1.0 5.0 0.00 0.00 0.00 69 1017.0
20260502031320 59 157 0.0 4.0 0.00 0.00 0.00 70 1016.9
20260502030320 60 130 0.0 2.0 0.00 0.00 0.00 70 1016.8
20260502025322 60 130 0.0 2.0 0.00 0.00 0.00 70 1016.7
20260502024320 60 130 0.0 2.0 0.00 0.00 0.00 70 1016.6
20260502023325 60 130 1.0 2.0 0.00 0.00 0.00 69 1016.5
20260502022316 61 130 1.0 2.0 0.00 0.00 0.00 69 1016.3
20260502021751 61 130 0.0 2.0 0.00 0.00 0.00 68 1016.2
20260502020316 61 80 0.0 0.0 0.00 0.00 0.00 68 1016.1
20260502015315 61 80 0.0 0.0 0.00 0.00 0.00 66 1015.9
20260502014315 61 80 0.0 0.0 0.00 0.00 0.00 67 1015.8
20260502013800 61 80 0.0 0.0 0.00 0.00 0.00 66 1015.6
20260502012315 62 80 0.0 0.0 0.00 0.00 0.00 65 1015.4
20260502011316 62 80 0.0 0.0 0.00 0.00 0.00 65 1015.0
20260502010315 62 80 0.0 1.0 0.00 0.00 0.00 65 1014.8
20260502005309 62 80 0.0 2.0 0.00 0.00 0.00 65 1014.7
20260502004310 62 80 0.0 2.0 0.00 0.00 0.00 65 1014.4
20260502003308 62 80 0.0 1.0 0.00 0.00 0.00 64 1014.3
20260502002744 63 80 1.0 4.0 0.00 0.00 0.00 62 1014.1
20260502001309 63 89 1.0 4.0 0.00 0.00 0.00 61 1013.9
20260502000310 63 65 1.0 3.0 0.00 0.00 0.00 62 1013.9
20260501235755 63 74 1.0 4.0 0.00 0.00 0.00 61 1013.9
20260501234308 63 74 2.0 6.0 0.00 0.00 0.00 60 1013.9
20260501233309 63 73 2.0 5.0 0.00 0.00 0.00 59 1013.7
20260501232306 64 67 1.0 7.0 0.00 0.00 0.00 60 1013.7
20260501231306 64 75 0.0 4.0 0.00 0.00 0.00 60 1013.5
20260501230308 64 67 1.0 8.0 0.00 0.00 0.00 60 1013.6
20260501225306 64 62 2.0 8.0 0.00 0.00 0.00 61 1013.5
20260501224306 64 63 3.0 7.0 0.00 0.00 0.00 61 1013.5
20260501223307 63 66 3.0 9.0 0.00 0.00 0.00 61 1013.6
20260501222306 63 87 3.0 6.0 0.00 0.00 0.00 61 1013.5
20260501221308 63 39 2.0 8.0 0.00 0.00 0.00 60 1013.6
20260501220711 63 60 2.0 7.0 0.00 0.00 0.00 60 1013.4
20260501220345 63 42 3.0 8.0 0.00 0.00 0.00 59 1013.5
20260501214300 63 67 1.0 6.0 0.00 0.00 0.00 60 1013.4
20260501213302 63 66 2.0 9.0 0.00 0.00 0.00 58 1013.4
20260501212744 63 51 2.0 6.0 0.00 0.00 0.00 58 1013.6
20260501211301 63 59 3.0 10.0 0.00 0.00 0.00 57 1013.8
20260501210302 63 61 3.0 9.0 0.00 0.00 0.00 58 1014.0
20260501205301 63 51 2.0 9.0 0.00 0.00 0.00 59 1014.2
20260501204300 63 40 3.0 10.0 0.00 0.00 0.00 58 1014.5
20260501203300 63 5 3.0 10.0 0.00 0.00 0.00 58 1014.8
20260501202306 62 65 3.0 12.0 0.00 0.00 0.00 56 1014.8
20260501201301 62 61 3.0 11.0 0.00 0.00 0.00 58 1014.8
20260501200301 63 66 3.0 10.0 0.00 0.00 0.00 58 1014.7
20260501195300 63 59 4.0 12.0 0.00 0.00 0.00 59 1014.5
20260501194745 62 66 6.0 14.0 0.00 0.00 0.00 59 1014.4
20260501193302 62 66 5.0 13.0 0.00 0.00 0.00 59 1014.1
20260501192300 62 49 6.0 14.0 0.00 0.00 0.00 58 1013.9
20260501191301 62 80 7.0 19.0 0.00 0.00 0.00 58 1014.1
20260501190300 62 51 6.0 17.0 0.00 0.00 0.00 59 1013.7
20260501185742 62 60 6.0 16.0 0.00 0.00 0.00 56 1013.9
20260501184746 62 59 7.0 15.0 0.00 0.00 0.00 57 1014.0
20260501183300 62 67 9.0 18.0 0.00 0.00 0.00 57 1013.9
20260501182306 62 73 9.0 18.0 0.00 0.00 0.00 57 1014.1
20260501181304 62 62 7.0 14.0 0.00 0.00 0.00 59 1014.3
20260501180302 62 51 9.0 17.0 0.00 0.00 0.00 57 1014.3
20260501175301 63 61 10.0 17.0 0.00 0.00 0.00 58 1014.2
20260501174301 62 65 8.0 18.0 0.00 0.00 0.00 57 1014.6
20260501173301 62 69 8.0 18.0 0.00 0.00 0.00 60 1014.7
20260501172301 62 63 8.0 18.0 0.00 0.01 0.00 60 1014.8
20260501171300 62 55 8.0 15.0 0.00 0.01 0.00 61 1014.8